Location: Mantua Corners
(41.3103°N, 81.2212°W)
Time: 20:24:17
(UTC+00:00)

Envisat - Visible Passes

Search period start: 04 October 2024 00:00
Search period end: 14 October 2024 00:00
Orbit: 762 x 764 km, 98.3° (Epoch: 04 October)

Date Brightness Start Highest point End Pass type
(mag) Time Alt. Az. Time Alt. Az. Time Alt. Az.
04 Oct 6.0 07:14:40 10° ENE 07:14:47 10° ENE 07:14:47 10° ENE visible
04 Oct 3.9 08:51:38 10° N 08:54:56 40° N 08:54:56 40° N visible
05 Oct 4.7 08:14:14 10° NNE 08:16:53 30° NE 08:16:53 30° NE visible
05 Oct 4.5 09:54:14 10° NNW 09:57:02 19° NW 09:57:02 19° NW visible
06 Oct 5.6 07:37:28 10° NE 07:38:51 16° NE 07:38:51 16° NE visible
06 Oct 4.0 09:15:53 10° N 09:18:59 31° NNW 09:18:59 31° NNW visible
07 Oct 4.3 08:38:08 10° NNE 08:40:56 34° NNE 08:40:56 34° NNE visible
07 Oct 4.9 10:19:42 10° NW 10:21:05 12° NW 10:21:05 12° NW visible
08 Oct 5.2 08:00:55 10° NNE 08:02:53 22° NE 08:02:53 22° NE visible
08 Oct 4.4 09:40:21 10° NNW 09:43:01 22° NW 09:43:01 22° NW visible
09 Oct 6.0 07:24:32 10° NE 07:24:50 11° NE 07:24:50 11° NE visible
09 Oct 4.2 09:02:15 10° N 09:04:58 31° NNW 09:04:58 31° NNW visible
10 Oct 4.8 08:24:41 10° NNE 08:26:55 26° NNE 08:26:55 26° NNE visible
10 Oct 4.8 10:05:15 10° NNW 10:07:03 14° NW 10:07:03 14° NW visible
11 Oct 5.6 07:47:41 10° NE 07:48:51 16° NE 07:48:51 16° NE visible
11 Oct 4.4 09:26:35 10° N 09:29:00 24° NNW 09:29:00 24° NNW visible
12 Oct 4.6 08:48:41 10° N 08:50:56 27° N 08:50:56 27° N visible
13 Oct 5.2 08:11:17 10° NNE 08:12:52 20° NNE 08:12:52 20° NNE visible
13 Oct 4.7 09:51:11 10° NNW 09:53:01 17° NW 09:53:01 17° NW visible
